SWA3437 KMKE-KDCA

Flight info

Callsign SWA3437
Flight time 1h 22m
Altitude 39000
Route UECKR6 SAMPL ADIME OTENS ANEWA JERRI BUCKO FRDMM6
Aircraft B737/M-SDE2E3FGHIRWXY/LB1

Departure

Time 2026-05-05 00:24
Airport General Mitchell International Airport (KMKE)

Arrival

Time 2026-05-05 01:47
Airport Ronald Reagan Washington National Airport (KDCA)
Time Latitude Longitude Altitude Speed Heading
2026-05-05 00:07 42.95022 -87.89936 687 ft 0 kts 294°
2026-05-05 00:16 42.95021 -87.89934 681 ft 2 kts 294°
2026-05-05 00:16 42.95013 -87.89907 679 ft 3 kts 294°
2026-05-05 00:16 42.94999 -87.89879 683 ft 4 kts 330°
2026-05-05 00:16 42.94980 -87.89875 683 ft 4 kts 46°
2026-05-05 00:17 42.94970 -87.89905 683 ft 3 kts 73°
2026-05-05 00:17 42.94969 -87.89910 683 ft 0 kts 73°
2026-05-05 00:19 42.94972 -87.89895 681 ft 3 kts 73°
2026-05-05 00:19 42.94987 -87.89834 684 ft 9 kts 59°
2026-05-05 00:19 42.95054 -87.89776 685 ft 14 kts 26°
2026-05-05 00:19 42.95069 -87.89766 680 ft 2 kts 26°
2026-05-05 00:20 42.95082 -87.89758 687 ft 2 kts 26°
2026-05-05 00:20 42.95101 -87.89745 685 ft 4 kts 27°
2026-05-05 00:20 42.95106 -87.89742 681 ft 0 kts 27°
2026-05-05 00:21 42.95107 -87.89741 687 ft 1 kts 27°
2026-05-05 00:22 42.95134 -87.89722 685 ft 7 kts 27°
2026-05-05 00:22 42.95199 -87.89677 684 ft 14 kts 27°
2026-05-05 00:22 42.95302 -87.89607 682 ft 19 kts 26°
2026-05-05 00:22 42.95420 -87.89519 685 ft 17 kts 28°
2026-05-05 00:23 42.95537 -87.89492 681 ft 17 kts
2026-05-05 00:23 42.95650 -87.89472 683 ft 16 kts
2026-05-05 00:23 42.95736 -87.89420 682 ft 11 kts 62°
2026-05-05 00:23 42.95727 -87.89322 683 ft 11 kts 141°
2026-05-05 00:24 42.95627 -87.89325 685 ft 32 kts 188°
2026-05-05 00:24 42.95123 -87.89414 681 ft 111 kts 187°
2026-05-05 00:24 42.94178 -87.89582 880 ft 153 kts 192°
2026-05-05 00:24 42.93114 -87.89786 1631 ft 160 kts 193°
2026-05-05 00:25 42.92005 -87.89822 2444 ft 161 kts 187°
2026-05-05 00:25 42.90832 -87.89803 3052 ft 182 kts 182°
2026-05-05 00:25 42.89472 -87.89283 3375 ft 220 kts 167°
2026-05-05 00:25 42.87938 -87.88515 3716 ft 248 kts 166°
2026-05-05 00:26 42.86298 -87.87693 4352 ft 256 kts 165°
2026-05-05 00:26 42.84643 -87.86866 5147 ft 260 kts 166°
2026-05-05 00:26 42.82876 -87.86000 5676 ft 278 kts 166°
2026-05-05 00:26 42.81017 -87.85097 6569 ft 285 kts 166°
2026-05-05 00:27 42.79144 -87.84191 7641 ft 286 kts 166°
2026-05-05 00:27 42.77269 -87.83289 8729 ft 288 kts 167°
2026-05-05 00:27 42.75361 -87.82378 9706 ft 293 kts 167°
2026-05-05 00:27 42.73412 -87.81454 10512 ft 303 kts 168°
2026-05-05 00:28 42.71324 -87.80479 10812 ft 331 kts 168°
2026-05-05 00:28 42.69087 -87.79434 11390 ft 346 kts 167°
2026-05-05 00:28 42.66856 -87.78158 12235 ft 361 kts 155°
2026-05-05 00:28 42.64886 -87.75935 13194 ft 377 kts 137°
2026-05-05 00:29 42.63335 -87.72991 14057 ft 387 kts 126°
2026-05-05 00:29 42.61938 -87.69826 14968 ft 393 kts 124°
2026-05-05 00:29 42.60561 -87.66600 15871 ft 397 kts 124°
2026-05-05 00:29 42.59172 -87.63329 16785 ft 402 kts 124°
2026-05-05 00:30 42.58240 -87.61146 17360 ft 405 kts 124°
2026-05-05 00:30 42.56339 -87.56732 18440 ft 412 kts 124°
2026-05-05 00:30 42.54873 -87.53363 19187 ft 417 kts 125°
2026-05-05 00:30 42.53382 -87.49955 19897 ft 423 kts 125°
2026-05-05 00:31 42.52358 -87.47625 20390 ft 427 kts 125°
2026-05-05 00:31 42.50845 -87.44188 21102 ft 432 kts 126°
2026-05-05 00:31 42.49274 -87.40625 21828 ft 438 kts 126°
2026-05-05 00:31 42.47702 -87.37068 22526 ft 444 kts 126°
2026-05-05 00:32 42.46125 -87.33502 23202 ft 449 kts 126°
2026-05-05 00:32 42.44509 -87.29853 23770 ft 454 kts 126°
2026-05-05 00:32 42.42883 -87.26182 24392 ft 456 kts 126°
2026-05-05 00:32 42.41247 -87.22493 25063 ft 458 kts 126°
2026-05-05 00:33 42.39602 -87.18786 25705 ft 460 kts 126°
2026-05-05 00:33 42.37948 -87.15067 26298 ft 463 kts 126°
2026-05-05 00:33 42.36281 -87.11325 26854 ft 465 kts 125°
2026-05-05 00:33 42.34605 -87.07564 27515 ft 466 kts 125°
2026-05-05 00:34 42.32927 -87.03805 28096 ft 468 kts 125°
2026-05-05 00:34 42.31236 -87.00024 28617 ft 472 kts 125°
2026-05-05 00:34 42.29548 -86.96256 29109 ft 475 kts 125°
2026-05-05 00:34 42.27829 -86.92421 29618 ft 478 kts 126°
2026-05-05 00:35 42.26093 -86.88555 30068 ft 481 kts 126°
2026-05-05 00:35 42.24355 -86.84686 30464 ft 484 kts 126°
2026-05-05 00:35 42.22602 -86.80791 30850 ft 486 kts 126°
2026-05-05 00:35 42.20843 -86.76887 31219 ft 489 kts 125°
2026-05-05 00:36 42.19067 -86.72950 31571 ft 491 kts 125°
2026-05-05 00:36 42.17288 -86.69009 31849 ft 493 kts 125°
2026-05-05 00:36 42.15504 -86.65064 32312 ft 491 kts 125°
2026-05-05 00:36 42.13755 -86.61198 32812 ft 488 kts 126°
2026-05-05 00:37 42.11991 -86.57305 33392 ft 484 kts 126°
2026-05-05 00:37 42.10242 -86.53450 33812 ft 482 kts 126°
2026-05-05 00:37 42.08486 -86.49592 34113 ft 483 kts 126°
2026-05-05 00:37 42.06724 -86.45724 34380 ft 485 kts 126°
2026-05-05 00:38 42.04952 -86.41839 34706 ft 485 kts 126°
2026-05-05 00:38 42.03186 -86.37971 35079 ft 484 kts 126°
2026-05-05 00:38 42.01424 -86.34113 35432 ft 484 kts 126°
2026-05-05 00:38 41.99660 -86.30256 35743 ft 484 kts 126°
2026-05-05 00:39 41.97917 -86.26452 36058 ft 485 kts 126°
2026-05-05 00:39 41.96212 -86.22536 36464 ft 487 kts 120°
2026-05-05 00:39 41.94881 -86.18323 36616 ft 492 kts 110°
2026-05-05 00:39 41.93961 -86.13897 36888 ft 494 kts 107°
2026-05-05 00:40 41.93114 -86.09418 37121 ft 495 kts 107°
2026-05-05 00:40 41.92281 -86.04921 37409 ft 495 kts 107°
2026-05-05 00:40 41.91445 -86.00441 37723 ft 493 kts 107°
2026-05-05 00:40 41.90596 -85.95983 38102 ft 491 kts 107°
2026-05-05 00:41 41.89736 -85.91550 38389 ft 490 kts 107°
2026-05-05 00:41 41.88875 -85.87172 38568 ft 491 kts 107°
2026-05-05 00:41 41.87992 -85.82727 38618 ft 495 kts 107°
2026-05-05 00:42 41.86205 -85.73779 38619 ft 496 kts 107°
2026-05-05 00:42 41.84426 -85.64891 38610 ft 490 kts 107°
2026-05-05 00:43 41.82657 -85.56083 38637 ft 488 kts 107°
2026-05-05 00:43 41.80884 -85.47298 38639 ft 486 kts 107°
2026-05-05 00:44 41.79111 -85.38545 38633 ft 486 kts 107°
2026-05-05 00:44 41.77334 -85.29814 38659 ft 486 kts 108°
2026-05-05 00:45 41.75560 -85.21136 38665 ft 487 kts 108°
2026-05-05 00:45 41.73760 -85.12362 38670 ft 488 kts 108°
2026-05-05 00:46 41.71949 -85.03574 38666 ft 490 kts 108°
2026-05-05 00:46 41.70124 -84.94756 38667 ft 492 kts 108°
2026-05-05 00:47 41.68305 -84.85991 38663 ft 493 kts 108°
2026-05-05 00:47 41.66613 -84.77081 38652 ft 495 kts 99°
2026-05-05 00:48 41.66120 -84.67874 38661 ft 496 kts 93°
2026-05-05 00:48 41.65815 -84.58658 38668 ft 496 kts 93°
2026-05-05 00:49 41.65463 -84.49500 38662 ft 495 kts 94°
2026-05-05 00:49 41.65062 -84.40323 38661 ft 494 kts 94°
2026-05-05 00:50 41.64642 -84.31159 38671 ft 492 kts 94°
2026-05-05 00:50 41.64218 -84.22016 38672 ft 491 kts 94°
2026-05-05 00:51 41.63790 -84.12900 38675 ft 491 kts 94°
2026-05-05 00:51 41.63359 -84.03851 38676 ft 490 kts 94°
2026-05-05 00:52 41.62919 -83.94757 38669 ft 490 kts 94°
2026-05-05 00:52 41.62470 -83.85645 38659 ft 491 kts 94°
2026-05-05 00:53 41.62014 -83.76525 38669 ft 492 kts 94°
2026-05-05 00:53 41.61554 -83.67450 38668 ft 493 kts 94°
2026-05-05 00:54 41.60805 -83.58356 38661 ft 492 kts 105°
2026-05-05 00:54 41.58870 -83.49573 38661 ft 492 kts 109°
2026-05-05 00:55 41.56837 -83.40910 38697 ft 491 kts 109°
2026-05-05 00:55 41.54835 -83.32183 38699 ft 491 kts 108°
2026-05-05 00:56 41.52856 -83.23421 38698 ft 491 kts 108°
2026-05-05 00:56 41.50887 -83.14698 38688 ft 491 kts 108°
2026-05-05 00:57 41.48909 -83.05983 38680 ft 490 kts 109°
2026-05-05 00:57 41.46940 -82.97353 38729 ft 488 kts 109°
2026-05-05 00:58 41.44958 -82.88702 38727 ft 487 kts 109°
2026-05-05 00:58 41.42974 -82.80072 38726 ft 486 kts 109°
2026-05-05 00:59 41.40983 -82.71443 38723 ft 485 kts 109°
2026-05-05 00:59 41.38811 -82.62961 38708 ft 481 kts 119°
2026-05-05 01:00 41.35215 -82.55648 38724 ft 471 kts 137°
2026-05-05 01:00 41.30681 -82.49381 38721 ft 470 kts 139°
2026-05-05 01:01 41.26099 -82.43165 38727 ft 471 kts 138°
2026-05-05 01:01 41.21528 -82.36903 38731 ft 472 kts 138°
2026-05-05 01:02 41.16973 -82.30624 38742 ft 473 kts 138°
2026-05-05 01:02 41.12402 -82.24319 38743 ft 474 kts 138°
2026-05-05 01:03 41.07839 -82.18039 38729 ft 474 kts 137°
2026-05-05 01:03 41.03280 -82.11780 38767 ft 474 kts 137°
2026-05-05 01:04 40.98697 -82.05503 38787 ft 474 kts 137°
2026-05-05 01:04 40.91812 -81.96100 38794 ft 474 kts 137°
2026-05-05 01:05 40.87220 -81.89844 38794 ft 474 kts 137°
2026-05-05 01:05 40.82625 -81.83598 38786 ft 473 kts 137°
2026-05-05 01:06 40.78069 -81.77417 38780 ft 472 kts 137°
2026-05-05 01:06 40.73485 -81.71212 38782 ft 472 kts 137°
2026-05-05 01:07 40.68892 -81.65009 38776 ft 472 kts 137°
2026-05-05 01:07 40.64300 -81.58819 38785 ft 472 kts 137°
2026-05-05 01:08 40.59700 -81.52631 38789 ft 473 kts 137°
2026-05-05 01:08 40.55086 -81.46439 38798 ft 473 kts 137°
2026-05-05 01:09 40.50497 -81.40291 38801 ft 474 kts 137°
2026-05-05 01:09 40.45872 -81.34108 38802 ft 475 kts 137°
2026-05-05 01:10 40.41234 -81.27922 38806 ft 475 kts 137°
2026-05-05 01:10 40.36591 -81.21740 38807 ft 476 kts 138°
2026-05-05 01:11 40.31938 -81.15559 38812 ft 476 kts 138°
2026-05-05 01:11 40.27315 -81.09431 38820 ft 476 kts 138°
2026-05-05 01:12 40.22644 -81.03252 38830 ft 476 kts 138°
2026-05-05 01:12 40.17980 -80.97094 38837 ft 476 kts 138°
2026-05-05 01:13 40.13337 -80.90977 38839 ft 475 kts 138°
2026-05-05 01:13 40.08672 -80.84845 38840 ft 475 kts 138°
2026-05-05 01:14 40.04013 -80.78731 38839 ft 474 kts 138°
2026-05-05 01:14 39.99361 -80.72641 38847 ft 474 kts 138°
2026-05-05 01:15 39.94707 -80.66560 38848 ft 474 kts 138°
2026-05-05 01:15 39.90075 -80.60519 38853 ft 473 kts 138°
2026-05-05 01:16 39.85419 -80.54460 38842 ft 473 kts 138°
2026-05-05 01:16 39.80762 -80.48413 38855 ft 472 kts 138°
2026-05-05 01:17 39.76098 -80.42368 38868 ft 472 kts 138°
2026-05-05 01:17 39.71462 -80.36372 38865 ft 472 kts 138°
2026-05-05 01:18 39.67557 -80.31329 38882 ft 472 kts 138°
2026-05-05 01:18 39.62923 -80.25358 38887 ft 472 kts 138°
2026-05-05 01:19 39.58259 -80.19360 38886 ft 472 kts 138°
2026-05-05 01:19 39.55924 -80.16361 38737 ft 475 kts 138°
2026-05-05 01:19 39.53569 -80.13341 38328 ft 475 kts 138°
2026-05-05 01:20 39.51219 -80.10328 37686 ft 473 kts 138°
2026-05-05 01:20 39.48891 -80.07346 37082 ft 470 kts 137°
2026-05-05 01:20 39.46568 -80.04374 36425 ft 469 kts 137°
2026-05-05 01:20 39.44256 -80.01419 35824 ft 466 kts 137°
2026-05-05 01:21 39.41966 -79.98495 35021 ft 469 kts 137°
2026-05-05 01:21 39.39626 -79.95512 34250 ft 471 kts 137°
2026-05-05 01:21 39.37290 -79.92535 33355 ft 474 kts 137°
2026-05-05 01:21 39.34935 -79.89535 32422 ft 476 kts 137°
2026-05-05 01:22 39.32572 -79.86531 31608 ft 477 kts 137°
2026-05-05 01:22 39.30480 -79.83198 31255 ft 484 kts 121°
2026-05-05 01:22 39.29147 -79.79231 31141 ft 478 kts 104°
2026-05-05 01:22 39.28636 -79.75059 31014 ft 463 kts 95°
2026-05-05 01:23 39.28367 -79.70989 30923 ft 447 kts 93°
2026-05-05 01:23 39.28125 -79.67060 30907 ft 432 kts 94°
2026-05-05 01:23 39.27863 -79.63265 30907 ft 417 kts 94°
2026-05-05 01:23 39.27582 -79.59641 30901 ft 404 kts 95°
2026-05-05 01:24 39.27293 -79.56089 30900 ft 391 kts 95°
2026-05-05 01:24 39.27011 -79.52646 30820 ft 382 kts 95°
2026-05-05 01:24 39.26731 -79.49212 30130 ft 391 kts 95°
2026-05-05 01:24 39.26440 -79.45623 28742 ft 414 kts 95°
2026-05-05 01:25 39.26133 -79.41834 27326 ft 434 kts 95°
2026-05-05 01:25 39.25811 -79.37897 26527 ft 440 kts 96°
2026-05-05 01:25 39.25490 -79.33998 26159 ft 436 kts 96°
2026-05-05 01:25 39.25168 -79.30091 25805 ft 441 kts 96°
2026-05-05 01:26 39.24843 -79.26177 25414 ft 444 kts 96°
2026-05-05 01:26 39.24515 -79.22232 25024 ft 439 kts 96°
2026-05-05 01:26 39.24187 -79.18355 24645 ft 432 kts 96°
2026-05-05 01:26 39.23861 -79.14530 24280 ft 426 kts 96°
2026-05-05 01:27 39.23539 -79.10761 23914 ft 421 kts 96°
2026-05-05 01:27 39.23218 -79.07018 23560 ft 418 kts 96°
2026-05-05 01:27 39.22898 -79.03284 23162 ft 418 kts 96°
2026-05-05 01:27 39.22576 -78.99546 22772 ft 419 kts 96°
2026-05-05 01:28 39.22253 -78.95813 22375 ft 418 kts 96°
2026-05-05 01:28 39.21908 -78.92098 22012 ft 415 kts 97°
2026-05-05 01:28 39.21549 -78.88413 21651 ft 413 kts 97°
2026-05-05 01:28 39.21191 -78.84784 21307 ft 411 kts 97°
2026-05-05 01:29 39.20834 -78.81135 20949 ft 409 kts 97°
2026-05-05 01:29 39.20480 -78.77502 20606 ft 408 kts 97°
2026-05-05 01:29 39.20126 -78.73881 20254 ft 406 kts 97°
2026-05-05 01:29 39.19774 -78.70273 19904 ft 404 kts 97°
2026-05-05 01:30 39.19421 -78.66682 19561 ft 403 kts 97°
2026-05-05 01:30 39.19068 -78.63106 19219 ft 401 kts 97°
2026-05-05 01:30 39.18716 -78.59551 18877 ft 400 kts 97°
2026-05-05 01:30 39.18364 -78.56001 18531 ft 399 kts 97°
2026-05-05 01:31 39.18014 -78.52483 18203 ft 397 kts 97°
2026-05-05 01:31 39.17663 -78.48960 17820 ft 396 kts 97°
2026-05-05 01:31 39.17312 -78.45446 17449 ft 394 kts 97°
2026-05-05 01:31 39.16961 -78.41945 17100 ft 392 kts 97°
2026-05-05 01:32 39.16611 -78.38464 16739 ft 390 kts 97°
2026-05-05 01:32 39.16165 -78.35031 16430 ft 387 kts 104°
2026-05-05 01:32 39.15414 -78.31760 16179 ft 383 kts 109°
2026-05-05 01:32 39.14549 -78.28520 15840 ft 382 kts 110°
2026-05-05 01:33 39.13672 -78.25276 15528 ft 382 kts 109°
2026-05-05 01:33 39.12820 -78.22029 15201 ft 381 kts 109°
2026-05-05 01:33 39.11993 -78.18778 14877 ft 381 kts 108°
2026-05-05 01:33 39.11181 -78.15528 14551 ft 381 kts 108°
2026-05-05 01:34 39.10384 -78.12325 14242 ft 381 kts 108°
2026-05-05 01:34 39.09567 -78.09071 13911 ft 382 kts 108°
2026-05-05 01:34 39.08738 -78.05823 13567 ft 382 kts 108°
2026-05-05 01:34 39.07904 -78.02565 13199 ft 382 kts 108°
2026-05-05 01:35 39.07073 -77.99321 12844 ft 378 kts 108°
2026-05-05 01:35 39.06255 -77.96127 12520 ft 373 kts 108°
2026-05-05 01:35 39.05448 -77.92978 12196 ft 368 kts 108°
2026-05-05 01:35 39.04650 -77.89868 11870 ft 362 kts 108°
2026-05-05 01:36 39.03876 -77.86857 11564 ft 354 kts 108°
2026-05-05 01:36 39.03111 -77.83883 11255 ft 347 kts 108°
2026-05-05 01:36 39.02368 -77.80996 10987 ft 339 kts 108°
2026-05-05 01:36 39.01632 -77.78144 10698 ft 332 kts 108°
2026-05-05 01:37 39.00909 -77.75346 10422 ft 327 kts 108°
2026-05-05 01:37 39.00196 -77.72584 10148 ft 322 kts 108°
2026-05-05 01:37 38.99494 -77.69875 9879 ft 317 kts 107°
2026-05-05 01:37 38.98803 -77.67209 9586 ft 312 kts 107°
2026-05-05 01:38 38.98127 -77.64628 9301 ft 307 kts 109°
2026-05-05 01:38 38.97381 -77.62066 9038 ft 305 kts 111°
2026-05-05 01:38 38.96614 -77.59512 8769 ft 306 kts 111°
2026-05-05 01:38 38.95850 -77.56955 8506 ft 307 kts 111°
2026-05-05 01:39 38.95090 -77.54398 8243 ft 306 kts 111°
2026-05-05 01:39 38.94670 -77.51738 7939 ft 304 kts 87°
2026-05-05 01:39 38.95094 -77.49131 7625 ft 296 kts 65°
2026-05-05 01:39 38.95887 -77.46717 7309 ft 292 kts 63°
2026-05-05 01:40 38.96712 -77.44341 6983 ft 290 kts 63°
2026-05-05 01:40 38.97530 -77.41971 6655 ft 289 kts 64°
2026-05-05 01:40 38.98331 -77.39615 6343 ft 288 kts 65°
2026-05-05 01:40 38.99123 -77.37254 5997 ft 287 kts 65°
2026-05-05 01:41 38.99908 -77.34903 5672 ft 285 kts 65°
2026-05-05 01:41 39.00676 -77.32601 5341 ft 284 kts 65°
2026-05-05 01:41 39.01458 -77.30272 5034 ft 282 kts 65°
2026-05-05 01:41 39.02236 -77.27960 4719 ft 281 kts 66°
2026-05-05 01:42 39.02770 -77.25567 4379 ft 279 kts 90°
2026-05-05 01:42 39.02408 -77.23183 4093 ft 268 kts 118°
2026-05-05 01:42 39.01373 -77.21279 3808 ft 255 kts 141°
2026-05-05 01:42 39.00132 -77.19662 3340 ft 257 kts 140°
2026-05-05 01:43 38.98951 -77.17972 2996 ft 246 kts 138°
2026-05-05 01:43 38.97901 -77.16378 2808 ft 225 kts 138°
2026-05-05 01:43 38.96885 -77.14910 2359 ft 215 kts 142°
2026-05-05 01:43 38.95818 -77.13709 1967 ft 199 kts 153°
2026-05-05 01:44 38.94732 -77.12753 1834 ft 179 kts 153°
2026-05-05 01:44 38.93742 -77.11882 1545 ft 168 kts 153°
2026-05-05 01:44 38.92792 -77.11065 1231 ft 160 kts 153°
2026-05-05 01:44 38.91901 -77.10293 1028 ft 147 kts 150°
2026-05-05 01:45 38.91130 -77.09546 831 ft 138 kts 143°
2026-05-05 01:45 38.90626 -77.08492 612 ft 144 kts 109°
2026-05-05 01:45 38.90375 -77.07263 508 ft 141 kts 112°
2026-05-05 01:45 38.89780 -77.06303 379 ft 138 kts 148°
2026-05-05 01:46 38.89004 -77.05610 331 ft 136 kts 140°
2026-05-05 01:46 38.88361 -77.04748 298 ft 133 kts 141°
2026-05-05 01:46 38.87559 -77.04210 288 ft 135 kts 164°
2026-05-05 01:46 38.86625 -77.03928 154 ft 140 kts 176°
2026-05-05 01:47 38.85664 -77.03819 32 ft 134 kts 176°
2026-05-05 01:47 38.84947 -77.03757 24 ft 85 kts 175°
2026-05-05 01:47 38.84578 -77.03718 23 ft 26 kts 175°
2026-05-05 01:47 38.84419 -77.03725 24 ft 21 kts 204°
2026-05-05 01:48 38.84387 -77.03840 24 ft 12 kts 270°
2026-05-05 01:48 38.84385 -77.03945 25 ft 12 kts 267°
2026-05-05 01:48 38.84379 -77.04049 25 ft 10 kts 266°
2026-05-05 01:48 38.84413 -77.04116 23 ft 10 kts 340°
2026-05-05 01:49 38.84493 -77.04132 25 ft 13 kts 351°
2026-05-05 01:49 38.84571 -77.04185 27 ft 14 kts 281°
2026-05-05 01:49 38.84569 -77.04315 23 ft 15 kts 291°
2026-05-05 01:49 38.84628 -77.04361 25 ft 5 kts 20°
2026-05-05 01:50 38.84646 -77.04334 23 ft 3 kts 60°
2026-05-05 01:50 38.84649 -77.04325 26 ft 0 kts 61°